Weather History for Alliance, NE

Change the Weather History Date:

Tuesday, May 28, 2013

  Actual Average Record
Temperature  
Mean Temperature 59 °F 59 °F  
Max Temperature 77 °F 74 °F 95 °F (1934)
Min Temperature 41 °F 44 °F 27 °F (2005)
Degree Days  
Heating Degree Days 6 7  
Month to date heating degree days 274 308  
Since 1 July heating degree days 7104 7197  
Cooling Degree Days 0 1  
Month to date cooling degree days 22 3  
Year to date cooling degree days 22 3  
Growing Degree Days 9 (Base 50)    
Moisture  
Dew Point 49 °F    
Average Humidity 68    
Maximum Humidity 96    
Minimum Humidity 40    
Precipitation  
Precipitation 0.33 in 0.10 in 2.66 in (1978)
Month to date precipitation 2.02 2.27  
Year to date precipitation 4.84 5.13  
Sea Level Pressure  
Sea Level Pressure 29.67 in    
Wind  
Wind Speed 11 mph (SE)    
Max Wind Speed 36 mph    
Max Gust Speed 45 mph    
Visibility 9 miles    
Events Rain , Thunderstorm    
T = Trace of Precipitation, MM = Missing Value Source: NWS Daily Summary

Daily Weather History Graph

Daily Weather History Graph

Search for Another Location

Airport:

Trip Planner

Search our weather history database for the weather conditions in past years. The results will help you decide how hot, cold, wet, or windy it might be!

Date:

Astronomy

May. 28, 2013 Rise Set
Actual Time 5:19 AM MDT 8:17 PM MDT
Civil Twilight 4:46 AM MDT 8:51 PM MDT
Nautical Twilight 4:04 AM MDT 9:33 PM MDT
Astronomical Twilight 3:14 AM MDT 10:23 PM MDT
Moon 11:40 PM MDT (5/28) 9:12 AM MDT (5/28)
Length of Visible Light 16h 04m
Length of Day
14h 57m
Waning Gibbous, 82% of the Moon is Illuminated
May 28
Waning Gibbous
May 31
Last Quarter
Jun 8
New
Jun 16
First Quarter
Jun 23
Full

Hourly Weather History & Observations

Time (MDT) Temp. Windchill Dew Point Humidity Pressure Visibility Wind Dir Wind Speed Gust Speed Precip Events Conditions
12:53 AM 50.0 °F - 46.9 °F 89% 29.70 in 10.0 mi NNE 8.1 mph - N/A   Clear
1:53 AM 48.9 °F - 46.9 °F 93% 29.69 in 10.0 mi North 8.1 mph - N/A   Clear
2:53 AM 48.0 °F - 46.0 °F 93% 29.71 in 10.0 mi North 6.9 mph - N/A   Clear
3:53 AM 46.9 °F - 45.0 °F 93% 29.74 in 10.0 mi NNE 4.6 mph - N/A   Clear
4:23 AM 42.8 °F - 41.0 °F 93% 29.82 in 1.8 mi Calm Calm - N/A   Clear
4:44 AM 41.0 °F 37.1 °F 39.2 °F 93% 29.81 in 4.0 mi South 5.8 mph - N/A   Clear
4:53 AM 42.1 °F - 41.0 °F 96% 29.76 in 3.0 mi Calm Calm - N/A   Clear
5:53 AM 44.1 °F - 42.1 °F 93% 29.77 in 10.0 mi Calm Calm - N/A   Clear
6:53 AM 51.1 °F - 48.9 °F 92% 29.75 in 10.0 mi Calm Calm - N/A   Clear
7:53 AM 57.0 °F - 52.0 °F 83% 29.74 in 10.0 mi South 5.8 mph - N/A   Clear
8:53 AM 62.1 °F - 50.0 °F 65% 29.73 in 10.0 mi SSE 9.2 mph - N/A   Clear
9:53 AM 64.9 °F - 52.0 °F 63% 29.70 in 10.0 mi SSE 10.4 mph - N/A   Clear
10:53 AM 68.0 °F - 52.0 °F 56% 29.68 in 10.0 mi SSE 10.4 mph - N/A   Clear
11:53 AM 68.0 °F - 54.0 °F 61% 29.67 in 10.0 mi SE 8.1 mph - N/A   Clear
12:53 PM 72.0 °F - 51.1 °F 48% 29.64 in 10.0 mi SSE 11.5 mph - N/A   Clear
1:53 PM 75.0 °F - 52.0 °F 44% 29.62 in 10.0 mi SSE 16.1 mph - N/A   Clear
2:53 PM 77.0 °F - 52.0 °F 42% 29.58 in 10.0 mi SSE 19.6 mph 25.3 mph N/A   Clear
3:53 PM 73.9 °F - 55.0 °F 52% 29.56 in 10.0 mi SE 20.7 mph 25.3 mph N/A   Clear
4:21 PM 73.4 °F - 53.6 °F 50% 29.62 in 10.0 mi SE 16.1 mph 25.3 mph N/A Thunderstorm Clear
4:33 PM 73.4 °F - 51.8 °F 47% 29.61 in 10.0 mi SE 18.4 mph 26.5 mph N/A Thunderstorm Clear
4:50 PM 73.4 °F - 51.8 °F 47% 29.64 in 10.0 mi SE 16.1 mph - N/A Thunderstorm Clear
4:53 PM 73.0 °F - 51.1 °F 46% 29.57 in 10.0 mi SE 17.3 mph - N/A Thunderstorm Clear
5:11 PM 71.6 °F - 51.8 °F 50% 29.64 in 10.0 mi SE 17.3 mph 24.2 mph N/A   Partly Cloudy
5:45 PM 68.0 °F - 42.8 °F 40% 29.59 in 10.0 mi SE 29.9 mph 44.9 mph 0.00 in Rain , Thunderstorm Light Rain
5:53 PM 69.1 °F - 41.0 °F 36% 29.54 in 10.0 mi SSE 21.9 mph 43.7 mph 0.00 in Thunderstorm Mostly Cloudy
6:12 PM 66.2 °F - 41.0 °F 40% 29.62 in 10.0 mi SE 25.3 mph 32.2 mph N/A   Mostly Cloudy
6:53 PM 63.0 °F - 46.9 °F 56% 29.58 in 10.0 mi SE 13.8 mph 24.2 mph 0.00 in Thunderstorm Thunderstorm
7:29 PM 64.4 °F - 46.4 °F 52% 29.70 in 10.0 mi SE 5.8 mph - 0.01 in Rain Light Rain
7:53 PM 60.1 °F - 51.1 °F 72% 29.63 in 10.0 mi ENE 11.5 mph - 0.02 in Rain Light Rain
8:22 PM 57.2 °F - 51.8 °F 82% 29.73 in 10.0 mi East 9.2 mph - 0.06 in Rain , Thunderstorm Rain
8:40 PM 57.2 °F - 53.6 °F 88% 29.74 in 8.0 mi SE 15.0 mph - 0.10 in Rain , Thunderstorm Rain
8:53 PM 57.0 °F - 53.1 °F 87% 29.67 in 8.0 mi SSE 11.5 mph - 0.13 in Rain , Thunderstorm Rain
9:01 PM 57.2 °F - 53.6 °F 88% 29.76 in 8.0 mi SSE 13.8 mph - 0.02 in Rain Rain
9:53 PM 57.0 °F - 53.1 °F 87% 29.63 in 10.0 mi East 12.7 mph - 0.10 in   Overcast
10:53 PM 55.9 °F - 53.1 °F 90% 29.63 in 10.0 mi ENE 16.1 mph - 0.03 in Rain Light Rain
11:53 PM 55.9 °F - 51.1 °F 84% 29.55 in 10.0 mi East 18.4 mph 25.3 mph 0.04 in Rain Light Rain